星链-6341 (STARLINK-6341 )

导读

STARLINK-6341是美国太空探索技术公司(SpaceX)星链互联网卫星星座中的一员,于2023年5月31日发射入轨。星链项目旨在搭建全球卫星互联网,为地面提供宽带互联网服务,该卫星的发射是SpaceX持续扩充星链星座部署、完善全球覆盖能力的一环,助力推进低轨卫星互联网组网进程。

基本信息
目录编号:
56786
目录名称:
STARLINK-6341
国际标识:
2023-078V
轨道中心:
EARTH
卫星名称:
星链-6341
卫星全名:
星链-6341 (STARLINK-6341 )
卫星状态:
在轨 (已飞行1200 天)
发射日期:
2023-05-31 UTC
国别 :
美国 (US)
星等 :
--
该卫星已列入 空间交会检测服务 Space Conjunction Data Service (SCDS) ,当前飞行风险评估等级: 无高风险
轨道信息
数据来源 国际轨道数据 AOE轨道数据
星历时间 2026-09-12T10:14:42+0800
16小时前
查看轨道信息
2026-09-06T09:00:00+0800
6天前
查看轨道信息
半长轴 6950.162km 6950.178km
偏心率 0.0003232 0.0003622
轨道倾角 69.999° 69.999°
近地点辐角 259.702° 268.130°
升交点赤经 214.519° 229.776°
平近点角 100.377° 217.517°
近地点 569.778km 569.523km
远地点 574.272km 574.559km
周期 96.106分钟 96.107分钟
每日圈数 14.983402 14.98335
详细信息
固有亮度:
5
最大亮度:
2.5
卫星平台:
Starlink v1.5
覆盖范围:
全球
运营商:
太空探索技术公司
运营商所在国:
美国
制造商(研发单位):
太空探索技术公司
制造商所在国:
美国
使用方式:
暂无
卫星简介
星链(Starlink)计划是由太空探索技术公司(SpaceX)提出的一个巨型低轨卫星互联网星座项目,计划在2019年至2024年间在太空搭建由约1.2万颗卫星组成的“星链”网络,其中1584颗将部署在地球上空550千米处的近地轨道,并从2020年开始工作。该卫星仍在工作。
2D轨道图
3D轨道图
轨道高度分析图
轨道倾角分析图
轨道综合分析图
查看轨道综合分析图
与全量物体交会距离演化趋势
与全量物体交会风险概率演化趋势